Akron, OH

9:07 PM EST on February 21, 2017 (GMT -0500)
Akron Fulton International

Weather History for KAKR - February, 2013

Change the Weather History Date:

Wednesday, February 13, 2013

  Actual Average (KCAK) Record (KCAK)
Temperature  
Mean Temperature 28 °F -  
Max Temperature 34 °F 34 °F 66 °F (1938)
Min Temperature 23 °F 18 °F -12 °F (1905)
Degree Days  
Heating Degree Days 36    
Moisture  
Dew Point 23 °F    
Average Humidity 78    
Maximum Humidity 89    
Minimum Humidity 60    
Precipitation  
Precipitation 0.00 in - - ()
Sea Level Pressure  
Sea Level Pressure 29.81 in    
Wind  
Wind Speed 2 mph (NNW)    
Max Wind Speed 10 mph    
Max Gust Speed -    
Visibility 8 miles    
Events      
Averages and records for this station are not official NWS values.
T = Trace of Precipitation, MM = Missing Value Source: NWS Daily Summary

Daily Weather History Graph

Daily Weather History Graph

Search for Another Location

Airport or City:

Trip Planner

Search our weather history database for the weather conditions in past years. The results will help you decide how hot, cold, wet, or windy it might be!

Date:

Astronomy

Feb. 13, 2013 Rise Set
Actual Time 7:22 AM EST 5:58 PM EST
Civil Twilight 6:54 AM EST 6:26 PM EST
Nautical Twilight 6:22 AM EST 6:58 PM EST
Astronomical Twilight 5:50 AM EST 7:30 PM EST
Moon 8:48 AM EST (2/13) 10:02 PM EST (2/13)
Length of Visible Light 11h 32m
Length of Day
10h 35m
Waxing Crescent, 13% of the Moon is Illuminated
Feb 13
Waxing Crescent
Feb 17
First Quarter
Feb 25
Full
Mar 4
Last Quarter
Mar 11
New

Hourly Weather History & Observations

Time (EST) Temp. Windchill Dew Point Humidity Pressure Visibility Wind Dir Wind Speed Gust Speed Precip Events Conditions
12:54 AM 25.0 °F - 21.9 °F 88% 29.93 in 9.0 mi Calm Calm - N/A   Clear
1:54 AM 23.0 °F - 19.0 °F 85% 29.91 in 8.0 mi Calm Calm - N/A   Clear
2:54 AM 24.1 °F - 19.9 °F 84% 29.89 in 7.0 mi Calm Calm - N/A   Scattered Clouds
3:03 AM 24.8 °F - 21.2 °F 86% 29.86 in 7.0 mi Calm Calm - N/A   Mostly Cloudy
3:54 AM 27.0 °F - 23.0 °F 85% 29.88 in 8.0 mi Calm Calm - N/A   Overcast
4:54 AM 27.0 °F - 23.0 °F 85% 29.87 in 8.0 mi Calm Calm - N/A   Overcast
5:54 AM 26.1 °F - 23.0 °F 88% 29.86 in 7.0 mi Calm Calm - N/A   Overcast
6:54 AM 27.0 °F - 24.1 °F 89% 29.85 in 7.0 mi Calm Calm - N/A   Overcast
7:54 AM 28.0 °F - 24.1 °F 85% 29.83 in 5.0 mi Calm Calm - N/A   Overcast
8:54 AM 28.9 °F 21.9 °F 24.1 °F 82% 29.82 in 5.0 mi North 6.9 mph - N/A   Haze
9:54 AM 30.0 °F 23.2 °F 24.1 °F 79% 29.82 in 8.0 mi North 6.9 mph - N/A   Overcast
10:54 AM 30.0 °F 22.4 °F 24.1 °F 79% 29.83 in 7.0 mi North 8.1 mph - N/A   Overcast
11:02 AM 30.2 °F 26.7 °F 24.8 °F 80% 29.79 in 7.0 mi North 3.5 mph - N/A   Overcast
11:29 AM 30.2 °F 26.7 °F 24.8 °F 80% 29.78 in 7.0 mi ENE 3.5 mph - N/A   Overcast
11:50 AM 32.0 °F - 24.8 °F 75% 29.78 in 8.0 mi Calm Calm - N/A   Scattered Clouds
11:54 AM 32.0 °F - 24.1 °F 73% 29.81 in 8.0 mi Calm Calm - N/A   Scattered Clouds
12:30 PM 33.8 °F 29.6 °F 24.8 °F 70% 29.75 in 9.0 mi NNE 4.6 mph - N/A   Mostly Cloudy
12:38 PM 33.8 °F - 24.8 °F 70% 29.75 in 9.0 mi Calm Calm - N/A   Partly Cloudy
12:54 PM 33.1 °F - 24.1 °F 70% 29.77 in 9.0 mi Calm Calm - N/A   Clear
1:54 PM 34.0 °F - 24.1 °F 67% 29.74 in 9.0 mi Calm Calm - N/A   Clear
2:54 PM 34.0 °F 26.0 °F 24.1 °F 67% 29.75 in 8.0 mi NW 10.4 mph - N/A   Clear
3:28 PM 33.8 °F 28.6 °F 23.0 °F 65% 29.72 in 9.0 mi NNW 5.8 mph - N/A   Mostly Cloudy
3:54 PM 33.1 °F 26.1 °F 21.9 °F 64% 29.75 in 10.0 mi NNW 8.1 mph - N/A   Mostly Cloudy
4:01 PM 33.8 °F 27.0 °F 21.2 °F 60% 29.72 in 10.0 mi NNW 8.1 mph - N/A   Scattered Clouds
4:54 PM 33.1 °F 25.5 °F 23.0 °F 66% 29.75 in 9.0 mi North 9.2 mph - N/A   Clear
5:54 PM 30.0 °F 26.5 °F 23.0 °F 75% 29.76 in 9.0 mi North 3.5 mph - N/A   Clear
6:54 PM 28.9 °F 25.2 °F 21.9 °F 75% 29.78 in 10.0 mi North 3.5 mph - N/A   Clear
7:54 PM 26.1 °F 21.9 °F 21.0 °F 81% 29.82 in 8.0 mi West 3.5 mph - N/A   Clear
8:54 PM 26.1 °F 20.5 °F 21.0 °F 81% 29.84 in 8.0 mi WNW 4.6 mph - N/A   Clear
9:54 PM 25.0 °F - 21.0 °F 85% 29.85 in 7.0 mi Calm Calm - N/A   Clear
10:54 PM 25.0 °F - 21.0 °F 85% 29.86 in 6.0 mi Calm Calm - N/A   Clear
11:54 PM 24.1 °F 18.2 °F 19.9 °F 84% 29.87 in 5.0 mi SSW 4.6 mph - N/A   Clear